Other Public Products
Issued by NWS Grand Forks, ND

Home | Current Version | Previous Version | Text Only | Print | Product List | Glossary Off
Versions: 1 2 3 4 5 6 7 8 9 10 11 12 13 14 15 16 17 18 19 20 21 22 23 24 25 26 27 28 29 30 31 32 33 34 35 36 37 38 39 40 41 42 43 44 45 46 47 48 49 50

000
FPUS83 KFGF 060631
OPUFGF
PRAIRIE TO PINES WEATHER ROUNDUP
NATIONAL WEATHER SERVICE EASTERN NORTH DAKOTA/GRAND FORKS ND
100 AM CDT FRI MAY 06 2016

 **SATELLITE DATA USED TO AUGMENT SKY COVER AT AUTOMATED STATIONS**
 *****  WEATHER ACROSS EASTERN NORTH DAKOTA  *****

CITY           SKY/WX    TMP DP  RH WIND       PRES   REMARKS
GRAND FORKS    CLEAR     66  42  41 SW12      29.70S
6HR MIN TEMP:  60; 6HR MAX TEMP:  90;

GRAND FORKS AF CLEAR     63  41  45 SW8       29.70S
GRAND CITY NWS NOT AVBL
BUXTON           N/A     71  44  38 SW14        N/A
DEVILS LAKE    PTCLDY    66  45  46 SW13      29.73S
6HR MIN TEMP:  66; 6HR MAX TEMP:  82;

FARGO          CLEAR     71  40  32 SW14      29.76F
6HR MIN TEMP:  71; 6HR MAX TEMP:  88;

WAHPETON ARPT  PTCLDY    63  37  39 S9        29.81S
$$

 *****  WEATHER ACROSS CENTRAL AND WESTERN NORTH DAKOTA  *****

CITY           SKY/WX    TMP DP  RH WIND       PRES   REMARKS
JAMESTOWN      CLOUDY    59  48  67 S7        29.77F
6HR MIN TEMP:  59; 6HR MAX TEMP:  86;

BISMARCK       CLEAR     58  46  64 CALM      29.78S
6HR MIN TEMP:  58; 6HR MAX TEMP:  87;

MINOT          PTCLDY    74  38  27 SW10      29.72S
6HR MIN TEMP:  71; 6HR MAX TEMP:  92;

MINOT AFB      CLEAR     67  39  35 W8        29.71R
6HR MIN TEMP:  66; 6HR MAX TEMP:  89;

GARRISON         N/A     64  40  41 SW3       29.75F
6HR MIN TEMP:  61; 6HR MAX TEMP:  86;

WILLISTON      MOCLDY    61  41  47 CALM      29.79R
6HR MIN TEMP:  59; 6HR MAX TEMP:  87;

DICKINSON      CLEAR     56  39  53 S10       29.80S
6HR MIN TEMP:  55; 6HR MAX TEMP:  82;

HETTINGER      PTCLDY    56  46  69 CALM      29.85S
6HR MIN TEMP:  54; 6HR MAX TEMP:  79;

$$

 *****  OTHER OBSERVATIONS NORTHEAST NORTH DAKOTA  *****

CITY           SKY/WX    TMP DP  RH WIND       PRES   REMARKS
WALHALLA       FAIR      75  41  29 SW10G16   29.66S
LANGDON        FAIR      59  41  51 SW10      29.71S
CAVALIER       FAIR      72  41  33 SW8       29.66F
GRAFTON        FAIR      61  43  51 SW7       29.69F
CANDO          FAIR      59  39  47 SW7       29.73S
FORT TOTTEN      N/A     71  41  33 S6        29.95S
ROLLA          FAIR      64  39  39 SW13      29.72S
RUGBY          FAIR      64  45  48 SW14      29.71S
 ***** THE ABOVE OBSERVATIONS ARE NON NWS ARE NOT QUALITY
        CONTROLLED AND MAY MIS-REPORT RAIN FOR SNOW...
$$

 *****  OTHER OBSERVATIONS SOUTHEAST NORTH DAKOTA *****

CITY           SKY/WX    TMP DP  RH WIND       PRES   REMARKS
COOPERSTOWN    NOT AVBL
VALLEY CITY    FAIR      66  46  48 SW15G21   29.80S
OAKES            N/A    N/A N/A N/A MISG        N/A
GWINNER        FAIR      64  45  48 S12       29.81F
SHEYENNE NWR     N/A     67  41  38 SW9       29.95
BUFFALO          N/A     69  38  32 SW10        N/A
WYNDMERE         N/A     68  43  40 SW9         N/A
 ***** THE ABOVE OBSERVATIONS ARE NON NWS ARE NOT QUALITY
       CONTROLLED AND MAY MIS-REPORT RAIN FOR SNOW...
$$

  *****  WEATHER ACROSS NORTHERN MINNESOTA  *****

CITY           SKY/WX    TMP DP  RH WIND       PRES   REMARKS
FLAG ISLAND    PTCLDY    68  39  34 SW15      29.64S
WARROAD        CLOUDY    72  43  35 SW8       29.68S
ROSEAU         CLEAR     70  39  32 SW12      29.68S
HALLOCK        CLEAR     70  34  26 SW12      29.66S
THF RVR FALLS  CLEAR     72  37  28 S14G21    29.74S
6HR MIN TEMP:  66; 6HR MAX TEMP:  90;

HALSTAD        NOT AVBL
FOSSTON        CLEAR     57  39  51 S8        29.78S
BAUDETTE       MOCLDY    63  39  41 SW6       29.68F
6HR MIN TEMP:  63; 6HR MAX TEMP:  87;

WASKISH        CLEAR     70  39  32 S7        29.73S
CROOKSTON      CLEAR     66  39  37 SW12      29.73S
$$
  *****  WEATHER ACROSS CENTRAL AND WEST MINNESOTA  *****

CITY           SKY/WX    TMP DP  RH WIND       PRES   REMARKS
BEMIDJI        CLOUDY    69  40  34 SW7       29.78S
PARK RAPIDS    CLOUDY    68  39  34 SW9       29.81S
6HR MIN TEMP:  67; 6HR MAX TEMP:  83;

WADENA         CLEAR     63  43  48 SW5       29.83S
DETROIT LAKES  CLEAR     68  41  37 SW10      29.82S
MOORHEAD       CLEAR     66  41  39 S6        29.79S
FERGUS FALLS   CLEAR     61  45  55 S8        29.80S
ELBOW LAKE     FAIR      60  44  55 S9        29.85S
6HR MIN TEMP:  59; 6HR MAX TEMP:  83;

MORRIS MN      CLEAR     59  45  58 S12       29.85S
STAPLES        CLEAR     68  37  32 SW9       29.83S
WHEATON        CLEAR     66  45  45 S12       29.84S
$$
  *****  WEATHER ELSEWHERE ACROSS MINNESOTA  *****

CITY           SKY/WX    TMP DP  RH WIND       PRES   REMARKS
DULUTH         PTCLDY    61  42  49 W10       29.78F
6HR MIN TEMP:  61; 6HR MAX TEMP:  77;

INTRNTL FALLS  CLEAR     60  43  53 SW6       29.70S
6HR MIN TEMP:  55; 6HR MAX TEMP:  86;

ELY            CLEAR     64  43  45 SW6       29.74S
CLOQUET        CLEAR     70  37  30 W10       29.79S
BRAINERD       CLEAR     62  42  47 SW6       29.83S
6HR MIN TEMP:  62; 6HR MAX TEMP:  80;

HIBBING        CLEAR     49  43  80 CALM      29.77S
6HR MIN TEMP:  49; 6HR MAX TEMP:  80;

ALEXANDRIA     CLEAR     64  43  46 SW12      29.87F
6HR MIN TEMP:  64; 6HR MAX TEMP:  81;

SAINT CLOUD    CLEAR     65  44  46 SW7       29.85F
6HR MIN TEMP:  65; 6HR MAX TEMP:  80;

MINNEAPOLIS    CLEAR     66  41  40 SW8       29.87F
6HR MIN TEMP:  66; 6HR MAX TEMP:  78;

$$

  *****  WEATHER ACROSS SOUTH DAKOTA  *****

CITY           SKY/WX    TMP DP  RH WIND       PRES   REMARKS
SIOUX FALLS    CLEAR     62  44  51 SW12      29.93S
6HR MIN TEMP:  62; 6HR MAX TEMP:  74;

BROOKINGS      CLEAR     59  44  57 S9        29.91S
WATERTOWN      CLEAR     59  44  57 SE12      29.89S
6HR MIN TEMP:  57; 6HR MAX TEMP:  79;

HURON          CLEAR     63  46  54 S9        29.86S
6HR MIN TEMP:  62; 6HR MAX TEMP:  81;

SISSETON         N/A     72  38  29 SW17      29.82S
ABERDEEN       CLEAR     58  45  62 S9        29.82F
6HR MIN TEMP:  58; 6HR MAX TEMP:  86;

MITCHELL       CLEAR     61  49  64 S9        29.89S
PIERRE         PTCLDY    63  49  60 S8        29.79S
6HR MIN TEMP:  63; 6HR MAX TEMP:  83;

MOBRIDGE       PTCLDY    61  50  67 SE8       29.78F
RAPID CITY     PTCLDY    52  45  77 NW5       29.88S
6HR MIN TEMP:  51; 6HR MAX TEMP:  79;

$$

  *****  SOME WEATHER IN NEARBY STATES *****

CITY           SKY/WX    TMP DP  RH WIND       PRES   REMARKS
GLASGOW MT     CLOUDY    66  40  38 N21G29    29.85R
6HR MIN TEMP:  65; 6HR MAX TEMP:  84;

GREAT FALLS MT CLOUDY    53  40  61 N14       30.08R
6HR MIN TEMP:  53; 6HR MAX TEMP:  78;

CHEYENNE WY    CLOUDY    59  36  42 S7        30.07F
6HR MIN TEMP:  55; 6HR MAX TEMP:  75;

SCOTTSBLUFF NE MOCLDY    66  41  40 S7        29.96S
6HR MIN TEMP:  59; 6HR MAX TEMP:  81;

OMAHA NE       PTCLDY    59  47  64 SE8       30.00S
6HR MIN TEMP:  57; 6HR MAX TEMP:  76;

DES MOINES IA  CLEAR     57  40  52 SW3       30.00S
6HR MIN TEMP:  55; 6HR MAX TEMP:  71;

DAVENPORT IA   CLEAR     49  39  68 CALM      30.01R
6HR MIN TEMP:  49; 6HR MAX TEMP:  67;

CHICAGO IL     CLEAR     45  38  76 CALM      29.99R
6HR MIN TEMP:  45; 6HR MAX TEMP:  57;

EAU CLAIRE WI  CLEAR     54  40  59 SW3       29.86F
6HR MIN TEMP:  53; 6HR MAX TEMP:  69;

LA CROSSE WI   PTCLDY    57  45  64 SE9       29.92S
6HR MIN TEMP:  56; 6HR MAX TEMP:  70;

$$

  *****  SOME NATIONAL WEATHER *****

CITY           SKY/WX    TMP DP  RH WIND       PRES   REMARKS
LA GUARDIA NY  CLOUDY    52  46  80 NE15      29.66R               C1F1C2F2C3F3C4F4C5F5C6F6C7F7C8F8C9F9CaFaCbFbCcFcCdFdCe!



USA.gov is the U.S. government's official web portal to all federal, state and local government web resources and services.